Wetterdaten: Dienstag, 30.12.2014
Datum Zeit Temperatur Luftfeuchte Luftdruck Regen Wind Richtung Richtung Taupunkt Windchill Windben
30.12.2014 00:00 -5,5 C 86 % 1029,8 hPa 0,0 l/m 4,5 km/h (1 Bft) W 270 -7,5 C -8,1 C 4,8 km/h (1 Bft)
30.12.2014 00:05 -5,6 C 86 % 1029,8 hPa 0,0 l/m 4,5 km/h (1 Bft) W-NW 292 -7,6 C -8,1 C 6,6 km/h (2 Bft)
30.12.2014 00:10 -5,6 C 86 % 1029,8 hPa 0,0 l/m 3,9 km/h (1 Bft) NW 315 -7,6 C -7,7 C 4,8 km/h (1 Bft)
30.12.2014 00:15 -5,6 C 86 % 1029,8 hPa 0,0 l/m 4,3 km/h (1 Bft) W 270 -7,6 C -8,0 C 5,0 km/h (1 Bft)
30.12.2014 00:20 -5,6 C 86 % 1029,9 hPa 0,0 l/m 4,5 km/h (1 Bft) W 270 -7,6 C -8,2 C 9,5 km/h (2 Bft)
30.12.2014 00:25 -5,6 C 86 % 1029,9 hPa 0,0 l/m 4,0 km/h (1 Bft) NW 315 -7,6 C -7,9 C 3,2 km/h (1 Bft)
30.12.2014 00:30 -5,6 C 86 % 1029,9 hPa 0,0 l/m 3,9 km/h (1 Bft) W-SW 247 -7,6 C -7,8 C 5,3 km/h (1 Bft)
30.12.2014 00:35 -5,6 C 87 % 1029,9 hPa 0,0 l/m 4,2 km/h (1 Bft) W 270 -7,4 C -8,0 C 8,5 km/h (2 Bft)
30.12.2014 00:40 -5,6 C 87 % 1030,1 hPa 0,0 l/m 5,1 km/h (1 Bft) W-NW 292 -7,4 C -8,6 C 8,9 km/h (2 Bft)
30.12.2014 00:45 -5,6 C 87 % 1030,1 hPa 0,0 l/m 5,8 km/h (2 Bft) SW 225 -7,4 C -8,9 C 5,8 km/h (2 Bft)
30.12.2014 00:50 -5,6 C 87 % 1030,1 hPa 0,0 l/m 6,1 km/h (2 Bft) W-SW 247 -7,4 C -9,1 C 9,5 km/h (2 Bft)
30.12.2014 00:55 -5,6 C 87 % 1030,1 hPa 0,0 l/m 5,8 km/h (2 Bft) W-SW 247 -7,4 C -8,9 C 5,1 km/h (1 Bft)
30.12.2014 01:00 -5,6 C 87 % 1030,0 hPa 0,0 l/m 5,6 km/h (1 Bft) W 270 -7,4 C -8,9 C 5,5 km/h (1 Bft)
30.12.2014 01:05 -5,6 C 88 % 1030,0 hPa 0,0 l/m 5,5 km/h (1 Bft) W-SW 247 -7,3 C -8,8 C 6,1 km/h (2 Bft)
30.12.2014 01:10 -5,6 C 88 % 1030,0 hPa 0,0 l/m 5,8 km/h (2 Bft) W-SW 247 -7,3 C -8,8 C 10,0 km/h (2 Bft)
30.12.2014 01:15 -5,6 C 88 % 1030,0 hPa 0,0 l/m 5,8 km/h (2 Bft) W-SW 247 -7,3 C -8,8 C 7,6 km/h (2 Bft)
30.12.2014 01:20 -5,6 C 88 % 1030,1 hPa 0,0 l/m 5,6 km/h (1 Bft) W 270 -7,3 C -8,7 C 3,4 km/h (1 Bft)
30.12.2014 01:25 -5,6 C 88 % 1030,1 hPa 0,0 l/m 5,5 km/h (1 Bft) W-SW 247 -7,3 C -8,7 C 8,0 km/h (2 Bft)
30.12.2014 01:28 -5,6 C 88 % 1030,1 hPa 0,0 l/m 4,8 km/h (1 Bft) W 270 -7,3 C -8,3 C 11,3 km/h (2 Bft)
30.12.2014 01:30 -5,6 C 88 % 1030,1 hPa 0,0 l/m 5,6 km/h (1 Bft) W-NW 292 -7,3 C -8,7 C 9,2 km/h (2 Bft)
30.12.2014 01:35 -5,6 C 88 % 1030,0 hPa 0,0 l/m 6,3 km/h (2 Bft) W-SW 247 -7,3 C -9,1 C 6,3 km/h (2 Bft)
30.12.2014 01:40 -5,5 C 88 % 1030,0 hPa 0,0 l/m 6,6 km/h (2 Bft) W-SW 247 -7,2 C -9,4 C 8,0 km/h (2 Bft)
30.12.2014 01:45 -5,5 C 88 % 1030,0 hPa 0,0 l/m 6,8 km/h (2 Bft) W 270 -7,2 C -9,8 C 7,1 km/h (2 Bft)
30.12.2014 01:50 -5,5 C 88 % 1030,0 hPa 0,0 l/m 6,8 km/h (2 Bft) W-SW 247 -7,2 C -9,8 C 8,4 km/h (2 Bft)
30.12.2014 01:55 -5,5 C 88 % 1030,2 hPa 0,0 l/m 6,9 km/h (2 Bft) W-NW 292 -7,2 C -9,9 C 8,4 km/h (2 Bft)
30.12.2014 02:00 -5,5 C 88 % 1030,2 hPa 0,0 l/m 6,3 km/h (2 Bft) W-SW 247 -7,2 C -8,9 C 11,4 km/h (2 Bft)
30.12.2014 02:05 -5,5 C 88 % 1030,2 hPa 0,0 l/m 5,8 km/h (2 Bft) W-SW 247 -7,2 C -8,8 C 6,9 km/h (2 Bft)
30.12.2014 02:10 -5,5 C 88 % 1030,2 hPa 0,0 l/m 5,3 km/h (1 Bft) W 270 -7,2 C -8,6 C 5,5 km/h (1 Bft)
30.12.2014 02:15 -5,5 C 88 % 1030,2 hPa 0,0 l/m 5,1 km/h (1 Bft) W 270 -7,2 C -8,5 C 6,4 km/h (2 Bft)
30.12.2014 02:20 -5,5 C 89 % 1030,2 hPa 0,0 l/m 5,3 km/h (1 Bft) W-NW 292 -7,0 C -8,6 C 11,6 km/h (2 Bft)
30.12.2014 02:25 -5,5 C 89 % 1030,2 hPa 0,0 l/m 5,3 km/h (1 Bft) W-SW 247 -7,0 C -8,6 C 5,8 km/h (2 Bft)
30.12.2014 02:30 -5,5 C 89 % 1030,2 hPa 0,0 l/m 5,3 km/h (1 Bft) W-SW 247 -7,0 C -8,6 C 5,8 km/h (2 Bft)
30.12.2014 02:35 -5,5 C 89 % 1030,2 hPa 0,0 l/m 5,3 km/h (1 Bft) W-SW 247 -7,0 C -8,6 C 5,5 km/h (1 Bft)
30.12.2014 02:40 -5,5 C 89 % 1030,5 hPa 0,0 l/m 6,3 km/h (2 Bft) W 270 -7,0 C -9,1 C 12,2 km/h (2 Bft)
30.12.2014 02:45 -5,5 C 89 % 1030,5 hPa 0,0 l/m 5,3 km/h (1 Bft) NW 315 -7,0 C -8,6 C 4,5 km/h (1 Bft)
30.12.2014 02:50 -5,5 C 89 % 1030,5 hPa 0,0 l/m 5,0 km/h (1 Bft) NW 315 -7,0 C -8,4 C 5,5 km/h (1 Bft)
30.12.2014 02:55 -5,5 C 89 % 1030,5 hPa 0,0 l/m 5,0 km/h (1 Bft) W-SW 247 -7,0 C -8,4 C 3,9 km/h (1 Bft)
30.12.2014 03:00 -5,5 C 89 % 1030,6 hPa 0,0 l/m 4,2 km/h (1 Bft) NW 315 -7,0 C -7,9 C 6,0 km/h (2 Bft)
30.12.2014 03:05 -5,5 C 89 % 1030,6 hPa 0,0 l/m 4,7 km/h (1 Bft) W 270 -7,0 C -8,2 C 8,5 km/h (2 Bft)
30.12.2014 03:10 -5,5 C 89 % 1030,6 hPa 0,0 l/m 5,5 km/h (1 Bft) W-SW 247 -7,0 C -8,7 C 5,8 km/h (2 Bft)
30.12.2014 03:15 -5,5 C 89 % 1030,6 hPa 0,0 l/m 5,3 km/h (1 Bft) W-NW 292 -7,0 C -8,6 C 6,8 km/h (2 Bft)
30.12.2014 03:20 -5,5 C 89 % 1030,5 hPa 0,0 l/m 5,6 km/h (1 Bft) NW 315 -7,0 C -8,6 C 8,7 km/h (2 Bft)
30.12.2014 03:25 -5,4 C 89 % 1030,5 hPa 0,0 l/m 5,5 km/h (1 Bft) NW 315 -6,9 C -8,6 C 2,6 km/h (1 Bft)
30.12.2014 03:30 -5,4 C 89 % 1030,5 hPa 0,0 l/m 4,7 km/h (1 Bft) W-SW 247 -6,9 C -8,1 C 8,5 km/h (2 Bft)
30.12.2014 03:35 -5,4 C 89 % 1030,5 hPa 0,0 l/m 5,1 km/h (1 Bft) W 270 -6,9 C -8,3 C 6,3 km/h (2 Bft)
30.12.2014 03:40 -5,4 C 90 % 1030,5 hPa 0,0 l/m 5,5 km/h (1 Bft) W 270 -6,8 C -8,4 C 4,7 km/h (1 Bft)
30.12.2014 03:45 -5,4 C 90 % 1030,5 hPa 0,0 l/m 4,8 km/h (1 Bft) W 270 -6,8 C -8,1 C 5,5 km/h (1 Bft)
30.12.2014 03:50 -5,3 C 90 % 1030,5 hPa 0,0 l/m 5,5 km/h (1 Bft) W-SW 247 -6,7 C -8,4 C 10,3 km/h (2 Bft)
30.12.2014 03:55 -5,3 C 90 % 1030,5 hPa 0,0 l/m 6,3 km/h (2 Bft) W-NW 292 -6,7 C -8,8 C 7,6 km/h (2 Bft)
30.12.2014 04:00 -5,3 C 90 % 1030,6 hPa 0,0 l/m 5,8 km/h (2 Bft) W-SW 247 -6,7 C -8,6 C 6,4 km/h (2 Bft)
30.12.2014 04:05 -5,3 C 90 % 1030,6 hPa 0,0 l/m 4,8 km/h (1 Bft) SW 225 -6,7 C -8,1 C 3,4 km/h (1 Bft)
30.12.2014 04:10 -5,3 C 90 % 1030,6 hPa 0,0 l/m 5,8 km/h (2 Bft) W-SW 247 -6,7 C -8,6 C 5,5 km/h (1 Bft)
30.12.2014 04:15 -5,3 C 90 % 1030,6 hPa 0,0 l/m 6,1 km/h (2 Bft) W 270 -6,7 C -8,7 C 7,9 km/h (2 Bft)
30.12.2014 04:20 -5,2 C 90 % 1030,5 hPa 0,0 l/m 6,0 km/h (2 Bft) W-NW 292 -6,6 C -8,7 C 4,5 km/h (1 Bft)
30.12.2014 04:25 -5,2 C 90 % 1030,5 hPa 0,0 l/m 6,3 km/h (2 Bft) W-SW 247 -6,6 C -8,8 C 9,0 km/h (2 Bft)
30.12.2014 04:30 -5,2 C 90 % 1030,5 hPa 0,0 l/m 5,8 km/h (2 Bft) W-SW 247 -6,6 C -8,5 C 5,6 km/h (1 Bft)
30.12.2014 04:35 -5,2 C 90 % 1030,5 hPa 0,0 l/m 5,5 km/h (1 Bft) W-SW 247 -6,6 C -8,3 C 5,8 km/h (2 Bft)
30.12.2014 04:40 -5,2 C 90 % 1030,5 hPa 0,0 l/m 6,4 km/h (2 Bft) W-NW 292 -6,6 C -8,7 C 5,3 km/h (1 Bft)
30.12.2014 04:45 -5,2 C 90 % 1030,5 hPa 0,0 l/m 6,8 km/h (2 Bft) W 270 -6,6 C -9,5 C 6,1 km/h (2 Bft)
30.12.2014 04:50 -5,2 C 90 % 1030,5 hPa 0,0 l/m 5,5 km/h (1 Bft) W 270 -6,6 C -8,3 C 14,2 km/h (3 Bft)
30.12.2014 04:55 -5,1 C 90 % 1030,5 hPa 0,0 l/m 4,8 km/h (1 Bft) W-SW 247 -6,5 C -8,0 C 9,3 km/h (2 Bft)
30.12.2014 05:00 -5,1 C 90 % 1030,5 hPa 0,0 l/m 6,0 km/h (2 Bft) W 270 -6,5 C -8,6 C 8,0 km/h (2 Bft)
30.12.2014 05:05 -5,2 C 90 % 1030,5 hPa 0,0 l/m 7,1 km/h (2 Bft) W 270 -6,6 C -10,0 C 11,9 km/h (2 Bft)
30.12.2014 05:10 -5,1 C 90 % 1030,5 hPa 0,0 l/m 6,3 km/h (2 Bft) W-SW 247 -6,5 C -8,8 C 2,6 km/h (1 Bft)
30.12.2014 05:15 -5,1 C 90 % 1030,6 hPa 0,0 l/m 5,8 km/h (2 Bft) W-SW 247 -6,5 C -8,5 C 9,8 km/h (2 Bft)
30.12.2014 05:20 -5,1 C 90 % 1030,6 hPa 0,0 l/m 5,5 km/h (1 Bft) W-SW 247 -6,5 C -8,3 C 10,8 km/h (2 Bft)
30.12.2014 05:25 -5,1 C 90 % 1030,6 hPa 0,0 l/m 5,5 km/h (1 Bft) W-SW 247 -6,5 C -8,3 C 10,8 km/h (2 Bft)
30.12.2014 05:30 -5,1 C 90 % 1030,6 hPa 0,0 l/m 5,8 km/h (2 Bft) W 270 -6,5 C -8,4 C 6,8 km/h (2 Bft)
30.12.2014 05:35 -5,1 C 90 % 1030,6 hPa 0,0 l/m 6,6 km/h (2 Bft) W 270 -6,5 C -9,0 C 9,2 km/h (2 Bft)
30.12.2014 05:40 -5,1 C 90 % 1030,4 hPa 0,0 l/m 6,6 km/h (2 Bft) W 270 -6,5 C -9,0 C 11,1 km/h (2 Bft)
30.12.2014 05:45 -5,1 C 90 % 1030,4 hPa 0,0 l/m 6,6 km/h (2 Bft) W 270 -6,5 C -9,0 C 5,5 km/h (1 Bft)
30.12.2014 05:50 -5,1 C 89 % 1030,4 hPa 0,0 l/m 7,1 km/h (2 Bft) W 270 -6,6 C -9,9 C 6,0 km/h (2 Bft)
30.12.2014 05:55 -5,1 C 89 % 1030,4 hPa 0,0 l/m 6,4 km/h (2 Bft) W 270 -6,6 C -8,6 C 8,5 km/h (2 Bft)
30.12.2014 06:00 -5,1 C 89 % 1030,6 hPa 0,0 l/m 6,0 km/h (2 Bft) W 270 -6,6 C -8,4 C 6,9 km/h (2 Bft)
30.12.2014 06:05 -5,1 C 89 % 1030,6 hPa 0,0 l/m 6,3 km/h (2 Bft) NW 315 -6,6 C -8,6 C 8,2 km/h (2 Bft)
30.12.2014 06:10 -5,1 C 89 % 1030,6 hPa 0,0 l/m 6,6 km/h (2 Bft) W 270 -6,6 C -9,0 C 9,8 km/h (2 Bft)
30.12.2014 06:15 -5,1 C 89 % 1030,6 hPa 0,0 l/m 6,6 km/h (2 Bft) W-NW 292 -6,6 C -9,0 C 12,1 km/h (2 Bft)
30.12.2014 06:20 -5,1 C 89 % 1030,5 hPa 0,0 l/m 7,1 km/h (2 Bft) W-NW 292 -6,6 C -9,9 C 7,1 km/h (2 Bft)
30.12.2014 06:25 -5,1 C 89 % 1030,5 hPa 0,0 l/m 7,1 km/h (2 Bft) W-SW 247 -6,6 C -9,9 C 10,6 km/h (2 Bft)
30.12.2014 06:30 -5,1 C 89 % 1030,5 hPa 0,0 l/m 5,8 km/h (2 Bft) W-SW 247 -6,6 C -8,4 C 4,3 km/h (1 Bft)
30.12.2014 06:35 -5,1 C 89 % 1030,5 hPa 0,0 l/m 5,6 km/h (1 Bft) W 270 -6,6 C -8,3 C 6,8 km/h (2 Bft)
30.12.2014 06:40 -5,0 C 89 % 1030,4 hPa 0,0 l/m 6,9 km/h (2 Bft) W 270 -6,5 C -9,6 C 11,9 km/h (2 Bft)
30.12.2014 06:45 -5,0 C 89 % 1030,4 hPa 0,0 l/m 7,4 km/h (2 Bft) W-NW 292 -6,5 C -10,4 C 10,1 km/h (2 Bft)
30.12.2014 06:50 -5,0 C 89 % 1030,4 hPa 0,0 l/m 6,9 km/h (2 Bft) W-SW 247 -6,5 C -9,6 C 4,3 km/h (1 Bft)
30.12.2014 06:55 -5,0 C 89 % 1030,4 hPa 0,0 l/m 5,6 km/h (1 Bft) W 270 -6,5 C -8,3 C 6,9 km/h (2 Bft)
30.12.2014 07:00 -5,0 C 89 % 1030,1 hPa 0,0 l/m 6,4 km/h (2 Bft) W-SW 247 -6,5 C -8,5 C 6,0 km/h (2 Bft)
30.12.2014 07:05 -5,0 C 89 % 1030,1 hPa 0,0 l/m 6,9 km/h (2 Bft) W-SW 247 -6,5 C -9,4 C 7,4 km/h (2 Bft)
30.12.2014 07:10 -4,9 C 89 % 1030,1 hPa 0,0 l/m 6,4 km/h (2 Bft) W 270 -6,4 C -8,5 C 11,1 km/h (2 Bft)
30.12.2014 07:15 -4,9 C 89 % 1030,1 hPa 0,0 l/m 6,6 km/h (2 Bft) SW 225 -6,4 C -8,9 C 6,8 km/h (2 Bft)
30.12.2014 07:20 -4,9 C 89 % 1030,1 hPa 0,0 l/m 6,0 km/h (2 Bft) W 270 -6,4 C -8,3 C 6,8 km/h (2 Bft)
30.12.2014 07:23 -4,9 C 89 % 1030,1 hPa 0,0 l/m 5,5 km/h (1 Bft) W 270 -6,4 C -8,1 C 8,4 km/h (2 Bft)
30.12.2014 07:25 -4,9 C 89 % 1030,1 hPa 0,0 l/m 6,0 km/h (2 Bft) W 270 -6,4 C -8,3 C 6,9 km/h (2 Bft)
30.12.2014 07:30 -4,9 C 89 % 1030,1 hPa 0,0 l/m 6,3 km/h (2 Bft) W-SW 247 -6,4 C -8,5 C 8,4 km/h (2 Bft)
30.12.2014 07:35 -4,9 C 89 % 1029,9 hPa 0,0 l/m 6,4 km/h (2 Bft) W-SW 247 -6,4 C -8,5 C 9,0 km/h (2 Bft)
30.12.2014 07:40 -4,9 C 89 % 1029,9 hPa 0,0 l/m 6,6 km/h (2 Bft) W 270 -6,4 C -8,7 C 8,7 km/h (2 Bft)
30.12.2014 07:45 -4,9 C 89 % 1029,9 hPa 0,0 l/m 6,6 km/h (2 Bft) W-SW 247 -6,4 C -8,7 C 8,0 km/h (2 Bft)
30.12.2014 07:50 -4,9 C 89 % 1029,9 hPa 0,0 l/m 7,1 km/h (2 Bft) W-SW 247 -6,4 C -9,6 C 6,6 km/h (2 Bft)
30.12.2014 07:55 -4,9 C 89 % 1029,9 hPa 0,0 l/m 6,8 km/h (2 Bft) W-NW 292 -6,4 C -9,1 C 10,6 km/h (2 Bft)
30.12.2014 08:00 -4,9 C 89 % 1029,9 hPa 0,0 l/m 6,9 km/h (2 Bft) W-SW 247 -6,4 C -9,3 C 7,6 km/h (2 Bft)
30.12.2014 08:05 -4,8 C 89 % 1029,9 hPa 0,0 l/m 7,7 km/h (2 Bft) W 270 -6,3 C -10,7 C 13,8 km/h (3 Bft)
30.12.2014 08:10 -4,8 C 88 % 1029,9 hPa 0,0 l/m 8,2 km/h (2 Bft) NW 315 -6,5 C -11,3 C 8,2 km/h (2 Bft)
30.12.2014 08:15 -4,8 C 88 % 1030,0 hPa 0,0 l/m 9,0 km/h (2 Bft) W-SW 247 -6,5 C -12,6 C 9,2 km/h (2 Bft)
30.12.2014 08:20 -4,8 C 88 % 1030,0 hPa 0,0 l/m 9,0 km/h (2 Bft) W-SW 247 -6,5 C -12,6 C 18,3 km/h (3 Bft)
30.12.2014 08:25 -4,8 C 88 % 1030,0 hPa 0,0 l/m 8,2 km/h (2 Bft) W 270 -6,5 C -11,3 C 10,3 km/h (2 Bft)
30.12.2014 08:30 -4,8 C 88 % 1030,0 hPa 0,0 l/m 8,7 km/h (2 Bft) W-SW 247 -6,5 C -12,2 C 10,8 km/h (2 Bft)
30.12.2014 08:35 -4,7 C 88 % 1030,0 hPa 0,0 l/m 9,5 km/h (2 Bft) W-NW 292 -6,4 C -13,3 C 9,2 km/h (2 Bft)
30.12.2014 08:40 -4,7 C 88 % 1029,9 hPa 0,0 l/m 8,9 km/h (2 Bft) W-SW 247 -6,4 C -12,4 C 8,4 km/h (2 Bft)
30.12.2014 08:45 -4,7 C 88 % 1029,9 hPa 0,0 l/m 8,5 km/h (2 Bft) W 270 -6,4 C -11,8 C 11,3 km/h (2 Bft)
30.12.2014 08:50 -4,7 C 88 % 1029,9 hPa 0,0 l/m 9,0 km/h (2 Bft) W-NW 292 -6,4 C -12,5 C 6,4 km/h (2 Bft)
30.12.2014 08:55 -4,7 C 88 % 1029,9 hPa 0,0 l/m 8,4 km/h (2 Bft) W 270 -6,4 C -11,6 C 10,3 km/h (2 Bft)
30.12.2014 09:00 -4,7 C 88 % 1029,7 hPa 0,0 l/m 7,6 km/h (2 Bft) W-NW 292 -6,4 C -10,3 C 8,2 km/h (2 Bft)
30.12.2014 09:05 -4,7 C 88 % 1029,7 hPa 0,0 l/m 7,7 km/h (2 Bft) W-SW 247 -6,4 C -10,5 C 7,9 km/h (2 Bft)
30.12.2014 09:10 -4,6 C 88 % 1029,7 hPa 0,0 l/m 8,5 km/h (2 Bft) W 270 -6,3 C -11,8 C 8,7 km/h (2 Bft)
30.12.2014 09:15 -4,6 C 88 % 1029,7 hPa 0,0 l/m 9,3 km/h (2 Bft) W-SW 247 -6,3 C -12,8 C 7,2 km/h (2 Bft)
30.12.2014 09:20 -4,6 C 88 % 1029,7 hPa 0,0 l/m 8,5 km/h (2 Bft) W-SW 247 -6,3 C -11,6 C 12,4 km/h (3 Bft)
30.12.2014 09:25 -4,5 C 88 % 1029,7 hPa 0,0 l/m 8,0 km/h (2 Bft) W-NW 292 -6,2 C -10,9 C 7,6 km/h (2 Bft)
30.12.2014 09:30 -4,5 C 88 % 1029,7 hPa 0,0 l/m 7,4 km/h (2 Bft) W 270 -6,2 C -9,7 C 6,0 km/h (2 Bft)
30.12.2014 09:35 -4,5 C 88 % 1029,7 hPa 0,0 l/m 7,4 km/h (2 Bft) W-SW 247 -6,2 C -9,7 C 5,8 km/h (2 Bft)
30.12.2014 09:40 -4,4 C 88 % 1029,7 hPa 0,0 l/m 6,9 km/h (2 Bft) SW 225 -6,1 C -8,7 C 4,0 km/h (1 Bft)
30.12.2014 09:45 -4,3 C 88 % 1029,7 hPa 0,0 l/m 7,9 km/h (2 Bft) W-SW 247 -6,0 C -10,4 C 8,7 km/h (2 Bft)
30.12.2014 09:50 -4,3 C 87 % 1029,7 hPa 0,0 l/m 7,2 km/h (2 Bft) SW 225 -6,1 C -9,1 C 6,6 km/h (2 Bft)
30.12.2014 09:55 -4,3 C 87 % 1029,7 hPa 0,0 l/m 6,3 km/h (2 Bft) W-SW 247 -6,1 C -7,6 C 6,9 km/h (2 Bft)
30.12.2014 10:00 -4,2 C 87 % 1029,9 hPa 0,0 l/m 7,1 km/h (2 Bft) W-SW 247 -6,0 C -8,8 C 12,2 km/h (2 Bft)
30.12.2014 10:05 -4,2 C 87 % 1029,9 hPa 0,0 l/m 7,6 km/h (2 Bft) N-NW 337 -6,0 C -9,8 C 5,8 km/h (2 Bft)
30.12.2014 10:10 -4,2 C 87 % 1029,9 hPa 0,0 l/m 7,1 km/h (2 Bft) W-SW 247 -6,0 C -8,8 C 8,0 km/h (2 Bft)
30.12.2014 10:15 -4,2 C 87 % 1029,9 hPa 0,0 l/m 6,1 km/h (2 Bft) W-SW 247 -6,0 C -7,5 C 6,4 km/h (2 Bft)
30.12.2014 10:20 -4,0 C 87 % 1029,6 hPa 0,0 l/m 6,4 km/h (2 Bft) W-SW 247 -5,8 C -7,6 C 5,3 km/h (1 Bft)
30.12.2014 10:23 -4,0 C 87 % 1029,6 hPa 0,0 l/m 6,1 km/h (2 Bft) W-NW 292 -5,8 C -7,4 C 9,2 km/h (2 Bft)
30.12.2014 10:25 -4,0 C 87 % 1029,6 hPa 0,0 l/m 6,1 km/h (2 Bft) W 270 -5,8 C -7,3 C 7,6 km/h (2 Bft)
30.12.2014 10:30 -3,9 C 87 % 1029,6 hPa 0,0 l/m 6,6 km/h (2 Bft) W 270 -5,7 C -7,7 C 5,6 km/h (1 Bft)
30.12.2014 10:35 -3,9 C 87 % 1029,8 hPa 0,0 l/m 6,4 km/h (2 Bft) W 270 -5,7 C -7,2 C 8,7 km/h (2 Bft)
30.12.2014 10:40 -3,9 C 86 % 1029,8 hPa 0,0 l/m 6,6 km/h (2 Bft) W 270 -5,9 C -7,6 C 3,5 km/h (1 Bft)
30.12.2014 10:45 -3,8 C 86 % 1029,8 hPa 0,0 l/m 5,3 km/h (1 Bft) W 270 -5,8 C -6,6 C 9,2 km/h (2 Bft)
30.12.2014 10:50 -3,8 C 86 % 1029,8 hPa 0,0 l/m 4,7 km/h (1 Bft) W-SW 247 -5,8 C -6,3 C 5,0 km/h (1 Bft)
30.12.2014 10:55 -3,7 C 86 % 1029,7 hPa 0,0 l/m 5,6 km/h (1 Bft) W-NW 292 -5,7 C -6,7 C 5,1 km/h (1 Bft)
30.12.2014 11:00 -3,5 C 86 % 1029,7 hPa 0,0 l/m 5,5 km/h (1 Bft) W 270 -5,5 C -6,5 C 5,6 km/h (1 Bft)
30.12.2014 11:05 -3,6 C 86 % 1029,7 hPa 0,0 l/m 5,8 km/h (2 Bft) W-SW 247 -5,6 C -6,7 C 8,5 km/h (2 Bft)
30.12.2014 11:10 -3,6 C 86 % 1029,7 hPa 0,0 l/m 6,3 km/h (2 Bft) W 270 -5,6 C -6,9 C 6,1 km/h (2 Bft)
30.12.2014 11:15 -3,6 C 85 % 1029,5 hPa 0,0 l/m 5,6 km/h (1 Bft) N-NW 337 -5,7 C -6,4 C 8,4 km/h (2 Bft)
30.12.2014 11:20 -3,4 C 85 % 1029,5 hPa 0,0 l/m 6,0 km/h (2 Bft) W-NW 292 -5,5 C -6,6 C 9,7 km/h (2 Bft)
30.12.2014 11:25 -3,4 C 85 % 1029,5 hPa 0,0 l/m 6,0 km/h (2 Bft) W-NW 292 -5,5 C -6,6 C 9,7 km/h (2 Bft)
30.12.2014 11:30 -3,4 C 85 % 1029,5 hPa 0,0 l/m 6,8 km/h (2 Bft) W-NW 292 -5,5 C -7,3 C 12,6 km/h (3 Bft)
30.12.2014 11:35 -3,4 C 84 % 1029,5 hPa 0,0 l/m 6,6 km/h (2 Bft) W 270 -5,7 C -7,0 C 10,5 km/h (2 Bft)
30.12.2014 11:40 -3,4 C 84 % 1029,3 hPa 0,0 l/m 7,4 km/h (2 Bft) N-NW 337 -5,7 C -8,4 C 8,0 km/h (2 Bft)
30.12.2014 11:45 -3,5 C 83 % 1029,3 hPa 0,0 l/m 8,0 km/h (2 Bft) W-SW 247 -6,0 C -9,3 C 16,4 km/h (3 Bft)
30.12.2014 11:50 -3,6 C 83 % 1029,3 hPa 0,0 l/m 8,5 km/h (2 Bft) W-SW 247 -6,1 C -10,2 C 19,3 km/h (3 Bft)
30.12.2014 11:55 -3,6 C 83 % 1029,3 hPa 0,0 l/m 8,4 km/h (2 Bft) W 270 -6,1 C -10,1 C 6,4 km/h (2 Bft)
30.12.2014 12:00 -3,5 C 83 % 1029,3 hPa 0,0 l/m 8,2 km/h (2 Bft) W 270 -6,0 C -9,8 C 10,8 km/h (2 Bft)
30.12.2014 12:05 -3,5 C 83 % 1029,3 hPa 0,0 l/m 7,6 km/h (2 Bft) W-SW 247 -6,0 C -8,8 C 8,5 km/h (2 Bft)
30.12.2014 12:10 -3,4 C 83 % 1029,3 hPa 0,0 l/m 8,2 km/h (2 Bft) W-SW 247 -5,9 C -9,7 C 20,4 km/h (4 Bft)
30.12.2014 12:15 -3,4 C 83 % 1029,3 hPa 0,0 l/m 7,9 km/h (2 Bft) W-SW 247 -5,9 C -9,1 C 12,4 km/h (3 Bft)
30.12.2014 12:20 -3,4 C 83 % 1029,1 hPa 0,0 l/m 8,2 km/h (2 Bft) W 270 -5,9 C -9,4 C 8,9 km/h (2 Bft)
30.12.2014 12:25 -3,4 C 83 % 1029,1 hPa 0,0 l/m 8,4 km/h (2 Bft) W 270 -5,9 C -9,8 C 8,9 km/h (2 Bft)
30.12.2014 12:30 -3,3 C 84 % 1029,1 hPa 0,0 l/m 7,4 km/h (2 Bft) W-NW 292 -5,6 C -8,3 C 11,1 km/h (2 Bft)
30.12.2014 12:35 -3,4 C 83 % 1029,1 hPa 0,0 l/m 8,9 km/h (2 Bft) SW 225 -5,9 C -10,7 C 11,4 km/h (2 Bft)
30.12.2014 12:40 -3,4 C 83 % 1029,1 hPa 0,0 l/m 9,7 km/h (2 Bft) SW 225 -5,9 C -11,8 C 12,4 km/h (3 Bft)
30.12.2014 12:45 -3,4 C 83 % 1029,1 hPa 0,0 l/m 9,0 km/h (2 Bft) W 270 -5,9 C -10,8 C 8,4 km/h (2 Bft)
30.12.2014 12:50 -3,4 C 83 % 1029,1 hPa 0,0 l/m 9,3 km/h (2 Bft) W-NW 292 -5,9 C -11,2 C 11,7 km/h (2 Bft)
30.12.2014 12:55 -3,5 C 82 % 1029,1 hPa 0,0 l/m 11,1 km/h (2 Bft) W-SW 247 -6,1 C -13,7 C 17,1 km/h (3 Bft)
30.12.2014 13:00 -3,4 C 83 % 1028,8 hPa 0,0 l/m 12,1 km/h (2 Bft) W 270 -5,9 C -15,1 C 21,6 km/h (4 Bft)
30.12.2014 13:05 -3,4 C 83 % 1028,8 hPa 0,0 l/m 11,3 km/h (2 Bft) NW 315 -5,9 C -13,9 C 15,3 km/h (3 Bft)
30.12.2014 13:10 -3,4 C 83 % 1028,8 hPa 0,0 l/m 10,8 km/h (2 Bft) W-NW 292 -5,9 C -13,3 C 19,8 km/h (3 Bft)
30.12.2014 13:15 -3,5 C 83 % 1028,8 hPa 0,0 l/m 11,1 km/h (2 Bft) W-NW 292 -6,0 C -13,8 C 17,2 km/h (3 Bft)
30.12.2014 13:20 -3,5 C 83 % 1028,8 hPa 0,0 l/m 12,1 km/h (2 Bft) NW 315 -6,0 C -15,1 C 10,5 km/h (2 Bft)
30.12.2014 13:23 -3,5 C 83 % 1028,8 hPa 0,0 l/m 11,9 km/h (2 Bft) W-SW 247 -6,0 C -14,8 C 17,9 km/h (3 Bft)
30.12.2014 13:25 -3,4 C 83 % 1028,8 hPa 0,0 l/m 12,1 km/h (2 Bft) W-SW 247 -5,9 C -15,1 C 13,4 km/h (3 Bft)
30.12.2014 13:30 -3,4 C 83 % 1028,8 hPa 0,0 l/m 11,9 km/h (2 Bft) W-NW 292 -5,9 C -14,7 C 22,4 km/h (4 Bft)
30.12.2014 13:35 -3,4 C 83 % 1028,7 hPa 0,0 l/m 10,6 km/h (2 Bft) W 270 -5,9 C -13,2 C 8,9 km/h (2 Bft)
30.12.2014 13:40 -3,4 C 84 % 1028,7 hPa 0,0 l/m 10,5 km/h (2 Bft) W 270 -5,7 C -13,0 C 10,1 km/h (2 Bft)
30.12.2014 13:45 -3,4 C 84 % 1028,7 hPa 0,0 l/m 9,3 km/h (2 Bft) W 270 -5,7 C -11,2 C 17,5 km/h (3 Bft)
30.12.2014 13:50 -3,5 C 84 % 1028,7 hPa 0,0 l/m 9,5 km/h (2 Bft) W-SW 247 -5,8 C -11,5 C 6,6 km/h (2 Bft)
30.12.2014 13:55 -3,4 C 84 % 1028,7 hPa 0,0 l/m 10,3 km/h (2 Bft) W-SW 247 -5,7 C -12,8 C 11,1 km/h (2 Bft)
30.12.2014 14:00 -3,5 C 84 % 1028,7 hPa 0,0 l/m 9,5 km/h (2 Bft) W-SW 247 -5,8 C -11,7 C 12,9 km/h (3 Bft)
30.12.2014 14:05 -3,6 C 84 % 1028,7 hPa 0,0 l/m 10,5 km/h (2 Bft) W 270 -5,9 C -13,0 C 18,8 km/h (3 Bft)
30.12.2014 14:10 -3,5 C 84 % 1028,7 hPa 0,0 l/m 10,8 km/h (2 Bft) W-NW 292 -5,8 C -13,5 C 12,6 km/h (3 Bft)
30.12.2014 14:15 -3,5 C 84 % 1028,6 hPa 0,0 l/m 10,3 km/h (2 Bft) W-SW 247 -5,8 C -12,9 C 12,9 km/h (3 Bft)
30.12.2014 14:20 -3,5 C 84 % 1028,6 hPa 0,0 l/m 10,3 km/h (2 Bft) W-SW 247 -5,8 C -12,9 C 12,9 km/h (3 Bft)
30.12.2014 14:25 -3,6 C 84 % 1028,6 hPa 0,0 l/m 10,0 km/h (2 Bft) W-SW 247 -5,9 C -12,5 C 8,4 km/h (2 Bft)
30.12.2014 14:30 -3,6 C 85 % 1028,6 hPa 0,0 l/m 10,0 km/h (2 Bft) W 270 -5,7 C -12,5 C 12,7 km/h (3 Bft)
30.12.2014 14:35 -3,6 C 85 % 1028,6 hPa 0,0 l/m 9,5 km/h (2 Bft) SW 225 -5,7 C -11,9 C 11,3 km/h (2 Bft)
30.12.2014 14:40 -3,6 C 85 % 1028,8 hPa 0,0 l/m 10,1 km/h (2 Bft) W-SW 247 -5,7 C -12,7 C 13,7 km/h (3 Bft)
30.12.2014 14:45 -3,6 C 85 % 1028,8 hPa 0,0 l/m 10,3 km/h (2 Bft) W-SW 247 -5,7 C -12,9 C 10,5 km/h (2 Bft)
30.12.2014 14:50 -3,6 C 85 % 1028,8 hPa 0,0 l/m 9,7 km/h (2 Bft) S-SW 202 -5,7 C -12,1 C 8,5 km/h (2 Bft)
30.12.2014 14:55 -3,6 C 85 % 1028,8 hPa 0,0 l/m 9,0 km/h (2 Bft) W-SW 247 -5,7 C -11,1 C 9,3 km/h (2 Bft)
30.12.2014 15:00 -3,6 C 85 % 1028,7 hPa 0,0 l/m 9,7 km/h (2 Bft) SW 225 -5,7 C -12,1 C 16,7 km/h (3 Bft)
30.12.2014 15:05 -3,6 C 85 % 1028,7 hPa 0,0 l/m 10,6 km/h (2 Bft) W-SW 247 -5,7 C -13,3 C 12,2 km/h (2 Bft)
30.12.2014 15:10 -3,6 C 85 % 1028,7 hPa 0,0 l/m 11,9 km/h (2 Bft) SW 225 -5,7 C -15,2 C 13,0 km/h (3 Bft)
30.12.2014 15:15 -3,6 C 85 % 1028,7 hPa 0,0 l/m 11,9 km/h (2 Bft) W-SW 247 -5,7 C -15,2 C 17,4 km/h (3 Bft)
30.12.2014 15:20 -3,7 C 85 % 1028,6 hPa 0,0 l/m 10,3 km/h (2 Bft) W-SW 247 -5,8 C -13,0 C 12,6 km/h (3 Bft)
30.12.2014 15:25 -3,7 C 86 % 1028,6 hPa 0,0 l/m 10,0 km/h (2 Bft) W 270 -5,7 C -12,6 C 10,9 km/h (2 Bft)
30.12.2014 15:30 -3,7 C 86 % 1028,6 hPa 0,0 l/m 10,0 km/h (2 Bft) W-NW 292 -5,7 C -12,6 C 11,1 km/h (2 Bft)
30.12.2014 15:35 -3,7 C 86 % 1028,6 hPa 0,0 l/m 9,7 km/h (2 Bft) W-SW 247 -5,7 C -12,2 C 13,0 km/h (3 Bft)
30.12.2014 15:40 -3,7 C 86 % 1028,7 hPa 0,0 l/m 9,2 km/h (2 Bft) W-SW 247 -5,7 C -11,7 C 10,8 km/h (2 Bft)
30.12.2014 15:45 -3,7 C 86 % 1028,7 hPa 0,0 l/m 8,9 km/h (2 Bft) W-SW 247 -5,7 C -11,2 C 7,1 km/h (2 Bft)
30.12.2014 15:50 -3,8 C 87 % 1028,7 hPa 0,0 l/m 9,0 km/h (2 Bft) W-SW 247 -5,6 C -11,3 C 11,3 km/h (2 Bft)
30.12.2014 15:55 -3,8 C 87 % 1028,7 hPa 0,0 l/m 8,0 km/h (2 Bft) W-SW 247 -5,6 C -9,8 C 6,3 km/h (2 Bft)
30.12.2014 16:00 -3,8 C 87 % 1028,9 hPa 0,0 l/m 8,4 km/h (2 Bft) W-SW 247 -5,6 C -10,4 C 15,1 km/h (3 Bft)
30.12.2014 16:05 -3,8 C 87 % 1028,9 hPa 0,0 l/m 8,9 km/h (2 Bft) W-SW 247 -5,6 C -11,2 C 14,8 km/h (3 Bft)
30.12.2014 16:10 -3,8 C 87 % 1028,9 hPa 0,0 l/m 10,0 km/h (2 Bft) W-SW 247 -5,6 C -12,7 C 12,9 km/h (3 Bft)
30.12.2014 16:15 -3,8 C 87 % 1028,9 hPa 0,0 l/m 9,8 km/h (2 Bft) W 270 -5,6 C -12,4 C 12,4 km/h (3 Bft)
30.12.2014 16:20 -3,8 C 87 % 1028,7 hPa 0,0 l/m 9,7 km/h (2 Bft) W-SW 247 -5,6 C -12,3 C 13,8 km/h (3 Bft)
30.12.2014 16:23 -3,8 C 88 % 1028,7 hPa 0,0 l/m 9,3 km/h (2 Bft) SW 225 -5,5 C -11,8 C 16,1 km/h (3 Bft)
30.12.2014 16:25 -3,8 C 88 % 1028,7 hPa 0,0 l/m 9,2 km/h (2 Bft) W 270 -5,5 C -11,7 C 14,8 km/h (3 Bft)
30.12.2014 16:30 -3,8 C 88 % 1028,7 hPa 0,0 l/m 9,5 km/h (2 Bft) W-SW 247 -5,5 C -12,0 C 13,5 km/h (3 Bft)
30.12.2014 16:35 -3,8 C 88 % 1028,9 hPa 0,0 l/m 10,0 km/h (2 Bft) W 270 -5,5 C -12,7 C 10,3 km/h (2 Bft)
30.12.2014 16:40 -3,8 C 88 % 1028,9 hPa 0,0 l/m 9,2 km/h (2 Bft) NW 315 -5,5 C -11,7 C 11,9 km/h (2 Bft)
30.12.2014 16:45 -3,8 C 88 % 1028,9 hPa 0,0 l/m 10,0 km/h (2 Bft) SW 225 -5,5 C -12,7 C 16,7 km/h (3 Bft)
30.12.2014 16:50 -3,8 C 88 % 1028,9 hPa 0,0 l/m 10,1 km/h (2 Bft) W-SW 247 -5,5 C -12,8 C 16,3 km/h (3 Bft)
30.12.2014 16:55 -3,7 C 88 % 1028,9 hPa 0,0 l/m 10,1 km/h (2 Bft) W 270 -5,4 C -12,8 C 16,7 km/h (3 Bft)
30.12.2014 17:00 -3,8 C 88 % 1028,9 hPa 0,0 l/m 9,8 km/h (2 Bft) W 270 -5,5 C -12,4 C 10,9 km/h (2 Bft)
30.12.2014 17:05 -3,8 C 88 % 1028,9 hPa 0,0 l/m 8,7 km/h (2 Bft) W-SW 247 -5,5 C -10,9 C 14,8 km/h (3 Bft)
30.12.2014 17:10 -3,7 C 88 % 1028,9 hPa 0,0 l/m 8,2 km/h (2 Bft) W-SW 247 -5,4 C -10,1 C 16,7 km/h (3 Bft)
30.12.2014 17:15 -3,7 C 88 % 1029,1 hPa 0,0 l/m 9,5 km/h (2 Bft) SW 225 -5,4 C -12,0 C 15,0 km/h (3 Bft)
30.12.2014 17:20 -3,7 C 88 % 1029,1 hPa 0,0 l/m 9,5 km/h (2 Bft) SW 225 -5,4 C -12,0 C 15,0 km/h (3 Bft)
30.12.2014 17:25 -3,7 C 88 % 1029,1 hPa 0,0 l/m 9,2 km/h (2 Bft) W 270 -5,4 C -11,5 C 8,0 km/h (2 Bft)
30.12.2014 17:30 -3,7 C 88 % 1029,1 hPa 0,0 l/m 9,0 km/h (2 Bft) W-SW 247 -5,4 C -11,2 C 12,7 km/h (3 Bft)
30.12.2014 17:35 -3,7 C 88 % 1029,1 hPa 0,0 l/m 9,0 km/h (2 Bft) W 270 -5,4 C -11,2 C 12,1 km/h (2 Bft)
30.12.2014 17:40 -3,7 C 89 % 1029,1 hPa 0,0 l/m 10,0 km/h (2 Bft) W 270 -5,2 C -12,6 C 10,3 km/h (2 Bft)
30.12.2014 17:45 -3,7 C 89 % 1029,1 hPa 0,0 l/m 10,0 km/h (2 Bft) W 270 -5,2 C -12,6 C 8,5 km/h (2 Bft)
30.12.2014 17:50 -3,6 C 89 % 1029,1 hPa 0,0 l/m 9,3 km/h (2 Bft) W-SW 247 -5,1 C -11,7 C 15,3 km/h (3 Bft)
30.12.2014 17:55 -3,6 C 89 % 1029,1 hPa 0,0 l/m 9,5 km/h (2 Bft) W-SW 247 -5,1 C -12,0 C 16,6 km/h (3 Bft)
30.12.2014 18:00 -3,6 C 89 % 1029,1 hPa 0,0 l/m 9,0 km/h (2 Bft) W-SW 247 -5,1 C -11,2 C 9,8 km/h (2 Bft)
30.12.2014 18:05 -3,6 C 89 % 1029,1 hPa 0,0 l/m 9,2 km/h (2 Bft) W-SW 247 -5,1 C -11,5 C 11,9 km/h (2 Bft)
30.12.2014 18:10 -3,6 C 89 % 1029,1 hPa 0,0 l/m 9,7 km/h (2 Bft) W 270 -5,1 C -12,1 C 10,1 km/h (2 Bft)
30.12.2014 18:15 -3,6 C 89 % 1029,1 hPa 0,0 l/m 9,2 km/h (2 Bft) W 270 -5,1 C -11,3 C 8,2 km/h (2 Bft)
30.12.2014 18:20 -3,6 C 89 % 1029,1 hPa 0,0 l/m 8,0 km/h (2 Bft) W-SW 247 -5,1 C -9,6 C 10,6 km/h (2 Bft)
30.12.2014 18:25 -3,6 C 89 % 1029,1 hPa 0,0 l/m 8,0 km/h (2 Bft) W-SW 247 -5,1 C -9,6 C 7,2 km/h (2 Bft)
30.12.2014 18:30 -3,6 C 89 % 1029,1 hPa 0,0 l/m 9,0 km/h (2 Bft) W 270 -5,1 C -11,1 C 12,2 km/h (2 Bft)
30.12.2014 18:35 -3,6 C 89 % 1029,1 hPa 0,0 l/m 9,0 km/h (2 Bft) W 270 -5,1 C -11,1 C 11,7 km/h (2 Bft)
30.12.2014 18:40 -3,6 C 89 % 1029,3 hPa 0,0 l/m 10,5 km/h (2 Bft) W 270 -5,1 C -13,1 C 13,7 km/h (3 Bft)
30.12.2014 18:45 -3,6 C 89 % 1029,3 hPa 0,0 l/m 10,3 km/h (2 Bft) W 270 -5,1 C -12,9 C 10,9 km/h (2 Bft)
30.12.2014 18:50 -3,6 C 89 % 1029,3 hPa 0,0 l/m 9,5 km/h (2 Bft) W-SW 247 -5,1 C -11,9 C 9,3 km/h (2 Bft)
30.12.2014 18:55 -3,6 C 89 % 1029,3 hPa 0,0 l/m 9,0 km/h (2 Bft) W 270 -5,1 C -11,1 C 8,7 km/h (2 Bft)
30.12.2014 19:00 -3,6 C 89 % 1029,1 hPa 0,0 l/m 10,8 km/h (2 Bft) W-SW 247 -5,1 C -13,5 C 13,7 km/h (3 Bft)
30.12.2014 19:05 -3,5 C 89 % 1029,1 hPa 0,0 l/m 11,7 km/h (2 Bft) W-SW 247 -5,0 C -14,6 C 11,9 km/h (2 Bft)
30.12.2014 19:10 -3,5 C 89 % 1029,1 hPa 0,0 l/m 11,9 km/h (2 Bft) W 270 -5,0 C -14,8 C 15,6 km/h (3 Bft)
30.12.2014 19:15 -3,5 C 89 % 1029,1 hPa 0,0 l/m 10,8 km/h (2 Bft) W 270 -5,0 C -13,4 C 18,2 km/h (3 Bft)
30.12.2014 19:18 -3,5 C 89 % 1029,2 hPa 0,0 l/m 10,5 km/h (2 Bft) W 270 -5,0 C -13,0 C 13,7 km/h (3 Bft)
30.12.2014 19:20 -3,5 C 89 % 1029,2 hPa 0,0 l/m 11,1 km/h (2 Bft) W-SW 247 -5,0 C -13,8 C 10,3 km/h (2 Bft)
30.12.2014 19:25 -3,5 C 89 % 1029,2 hPa 0,0 l/m 10,3 km/h (2 Bft) W-SW 247 -5,0 C -12,7 C 15,6 km/h (3 Bft)
30.12.2014 19:30 -3,4 C 89 % 1029,2 hPa 0,0 l/m 10,1 km/h (2 Bft) SW 225 -4,9 C -12,4 C 8,4 km/h (2 Bft)
30.12.2014 19:35 -3,4 C 89 % 1029,4 hPa 0,0 l/m 9,8 km/h (2 Bft) W-SW 247 -4,9 C -12,0 C 15,0 km/h (3 Bft)
30.12.2014 19:40 -3,4 C 89 % 1029,4 hPa 0,0 l/m 10,6 km/h (2 Bft) SW 225 -4,9 C -13,1 C 7,9 km/h (2 Bft)
30.12.2014 19:45 -3,4 C 89 % 1029,4 hPa 0,0 l/m 10,3 km/h (2 Bft) W-SW 247 -4,9 C -12,7 C 13,8 km/h (3 Bft)
30.12.2014 19:50 -3,4 C 89 % 1029,4 hPa 0,0 l/m 9,8 km/h (2 Bft) W-SW 247 -4,9 C -12,0 C 11,4 km/h (2 Bft)
30.12.2014 19:55 -3,4 C 89 % 1029,4 hPa 0,0 l/m 11,1 km/h (2 Bft) W-SW 247 -4,9 C -13,7 C 12,1 km/h (2 Bft)
30.12.2014 20:00 -3,4 C 89 % 1029,4 hPa 0,0 l/m 10,5 km/h (2 Bft) W 270 -4,9 C -12,9 C 16,9 km/h (3 Bft)
30.12.2014 20:05 -3,4 C 89 % 1029,4 hPa 0,0 l/m 10,3 km/h (2 Bft) W-SW 247 -4,9 C -12,8 C 10,8 km/h (2 Bft)
30.12.2014 20:10 -3,4 C 89 % 1029,4 hPa 0,0 l/m 10,6 km/h (2 Bft) W-SW 247 -4,9 C -13,2 C 9,3 km/h (2 Bft)
30.12.2014 20:15 -3,4 C 89 % 1029,6 hPa 0,0 l/m 9,8 km/h (2 Bft) N-NO 22 -4,9 C -11,9 C 11,7 km/h (2 Bft)
30.12.2014 20:20 -3,4 C 89 % 1029,6 hPa 0,0 l/m 9,8 km/h (2 Bft) N-NO 22 -4,9 C -11,9 C 11,7 km/h (2 Bft)
30.12.2014 20:25 -3,3 C 89 % 1029,6 hPa 0,0 l/m 10,5 km/h (2 Bft) SW 225 -4,8 C -12,9 C 12,1 km/h (2 Bft)
30.12.2014 20:30 -3,3 C 89 % 1029,6 hPa 0,0 l/m 10,3 km/h (2 Bft) W-SW 247 -4,8 C -12,7 C 19,2 km/h (3 Bft)
30.12.2014 20:35 -3,3 C 89 % 1029,6 hPa 0,0 l/m 9,8 km/h (2 Bft) W-SW 247 -4,8 C -12,0 C 11,6 km/h (2 Bft)
30.12.2014 20:40 -3,3 C 89 % 1029,2 hPa 0,0 l/m 11,1 km/h (2 Bft) W 270 -4,8 C -13,7 C 24,3 km/h (4 Bft)
30.12.2014 20:45 -3,3 C 89 % 1029,2 hPa 0,0 l/m 11,3 km/h (2 Bft) W 270 -4,8 C -13,8 C 13,0 km/h (3 Bft)
30.12.2014 20:50 -3,3 C 89 % 1029,2 hPa 0,0 l/m 10,6 km/h (2 Bft) W-SW 247 -4,8 C -12,9 C 13,0 km/h (3 Bft)
30.12.2014 20:55 -3,3 C 89 % 1029,2 hPa 0,0 l/m 9,8 km/h (2 Bft) W-SW 247 -4,8 C -11,9 C 12,9 km/h (3 Bft)
30.12.2014 21:00 -3,3 C 89 % 1029,1 hPa 0,0 l/m 9,7 km/h (2 Bft) W-SW 247 -4,8 C -11,6 C 9,7 km/h (2 Bft)
30.12.2014 21:05 -3,3 C 89 % 1029,1 hPa 0,0 l/m 9,2 km/h (2 Bft) W 270 -4,8 C -11,0 C 15,9 km/h (3 Bft)
30.12.2014 21:10 -3,2 C 89 % 1029,1 hPa 0,0 l/m 10,0 km/h (2 Bft) S 180 -4,7 C -12,1 C 12,4 km/h (3 Bft)
30.12.2014 21:15 -3,2 C 89 % 1029,1 hPa 0,0 l/m 10,9 km/h (2 Bft) SW 225 -4,7 C -13,3 C 10,9 km/h (2 Bft)
30.12.2014 21:20 -3,2 C 89 % 1029,1 hPa 0,0 l/m 10,6 km/h (2 Bft) SW 225 -4,7 C -12,9 C 14,0 km/h (3 Bft)
30.12.2014 21:25 -3,2 C 89 % 1029,1 hPa 0,0 l/m 10,1 km/h (2 Bft) W 270 -4,7 C -12,2 C 7,6 km/h (2 Bft)
30.12.2014 21:30 -3,2 C 89 % 1029,1 hPa 0,0 l/m 8,9 km/h (2 Bft) S-SW 202 -4,7 C -10,5 C 7,6 km/h (2 Bft)
30.12.2014 21:35 -3,2 C 89 % 1029,1 hPa 0,0 l/m 8,4 km/h (2 Bft) W 270 -4,7 C -9,8 C 10,5 km/h (2 Bft)
30.12.2014 21:40 -3,2 C 89 % 1029,2 hPa 0,0 l/m 9,8 km/h (2 Bft) W-SW 247 -4,7 C -11,7 C 6,1 km/h (2 Bft)
30.12.2014 21:45 -3,2 C 90 % 1029,2 hPa 0,0 l/m 8,5 km/h (2 Bft) W-SW 247 -4,6 C -9,9 C 6,9 km/h (2 Bft)
30.12.2014 21:50 -3,2 C 90 % 1029,2 hPa 0,0 l/m 7,4 km/h (2 Bft) W 270 -4,6 C -8,2 C 8,9 km/h (2 Bft)
30.12.2014 21:55 -3,2 C 90 % 1029,2 hPa 0,0 l/m 7,9 km/h (2 Bft) W 270 -4,6 C -9,0 C 9,8 km/h (2 Bft)
30.12.2014 22:00 -3,2 C 90 % 1029,3 hPa 0,0 l/m 7,7 km/h (2 Bft) W-SW 247 -4,6 C -8,7 C 10,9 km/h (2 Bft)
30.12.2014 22:05 -3,2 C 90 % 1029,3 hPa 0,0 l/m 7,6 km/h (2 Bft) W-SW 247 -4,6 C -8,5 C 6,6 km/h (2 Bft)
30.12.2014 22:10 -3,2 C 90 % 1029,3 hPa 0,0 l/m 6,8 km/h (2 Bft) W-SW 247 -4,6 C -7,2 C 6,3 km/h (2 Bft)
30.12.2014 22:15 -3,1 C 90 % 1029,3 hPa 0,0 l/m 6,8 km/h (2 Bft) S 180 -4,5 C -7,2 C 5,5 km/h (1 Bft)
30.12.2014 22:18 -3,1 C 90 % 1029,4 hPa 0,0 l/m 5,6 km/h (1 Bft) W-SW 247 -4,5 C -6,2 C 6,8 km/h (2 Bft)
30.12.2014 22:20 -3,1 C 90 % 1029,4 hPa 0,0 l/m 6,1 km/h (2 Bft) W-SW 247 -4,5 C -6,4 C 11,7 km/h (2 Bft)
30.12.2014 22:25 -3,1 C 90 % 1029,4 hPa 0,0 l/m 6,9 km/h (2 Bft) S 180 -4,5 C -7,2 C 8,0 km/h (2 Bft)
30.12.2014 22:30 -3,1 C 90 % 1029,4 hPa 0,0 l/m 6,9 km/h (2 Bft) SW 225 -4,5 C -7,2 C 5,3 km/h (1 Bft)
30.12.2014 22:35 -3,0 C 90 % 1029,7 hPa 0,0 l/m 7,4 km/h (2 Bft) W-SW 247 -4,4 C -8,1 C 6,4 km/h (2 Bft)
30.12.2014 22:40 -3,0 C 90 % 1029,7 hPa 0,0 l/m 7,1 km/h (2 Bft) S-SO 157 -4,4 C -7,6 C 6,8 km/h (2 Bft)
30.12.2014 22:45 -3,0 C 90 % 1029,7 hPa 0,0 l/m 7,1 km/h (2 Bft) W-SW 247 -4,4 C -7,6 C 6,6 km/h (2 Bft)
30.12.2014 22:50 -3,0 C 90 % 1029,7 hPa 0,0 l/m 7,2 km/h (2 Bft) W-SW 247 -4,4 C -7,7 C 7,1 km/h (2 Bft)
30.12.2014 22:55 -3,0 C 90 % 1029,8 hPa 0,0 l/m 6,9 km/h (2 Bft) S-SW 202 -4,4 C -7,2 C 7,1 km/h (2 Bft)
30.12.2014 23:00 -3,0 C 90 % 1029,8 hPa 0,0 l/m 6,8 km/h (2 Bft) W-SW 247 -4,4 C -7,1 C 8,0 km/h (2 Bft)
30.12.2014 23:05 -3,0 C 91 % 1029,8 hPa 0,0 l/m 8,2 km/h (2 Bft) W-SW 247 -4,3 C -9,1 C 16,1 km/h (3 Bft)
30.12.2014 23:10 -3,0 C 91 % 1029,8 hPa 0,0 l/m 8,2 km/h (2 Bft) W-SW 247 -4,3 C -9,1 C 10,1 km/h (2 Bft)
30.12.2014 23:15 -3,0 C 91 % 1029,8 hPa 0,0 l/m 8,2 km/h (2 Bft) W-SW 247 -4,3 C -9,1 C 10,1 km/h (2 Bft)
30.12.2014 23:20 -3,0 C 91 % 1029,8 hPa 0,0 l/m 6,8 km/h (2 Bft) W-SW 247 -4,3 C -6,9 C 6,4 km/h (2 Bft)
30.12.2014 23:25 -3,0 C 91 % 1029,8 hPa 0,0 l/m 6,9 km/h (2 Bft) W-SW 247 -4,3 C -7,0 C 11,1 km/h (2 Bft)
30.12.2014 23:30 -3,0 C 91 % 1029,8 hPa 0,0 l/m 7,1 km/h (2 Bft) SW 225 -4,3 C -7,4 C 7,4 km/h (2 Bft)
30.12.2014 23:35 -3,0 C 91 % 1029,8 hPa 0,0 l/m 6,6 km/h (2 Bft) SW 225 -4,3 C -6,5 C 6,4 km/h (2 Bft)
30.12.2014 23:40 -2,9 C 91 % 1029,7 hPa 0,0 l/m 7,4 km/h (2 Bft) W-SW 247 -4,2 C -8,0 C 14,3 km/h (3 Bft)
30.12.2014 23:45 -2,9 C 91 % 1029,7 hPa 0,0 l/m 8,2 km/h (2 Bft) SW 225 -4,2 C -9,1 C 11,1 km/h (2 Bft)
30.12.2014 23:50 -2,9 C 91 % 1029,7 hPa 0,0 l/m 8,5 km/h (2 Bft) SW 225 -4,2 C -9,6 C 8,2 km/h (2 Bft)
30.12.2014 23:55 -2,9 C 91 % 1029,7 hPa 0,0 l/m 7,7 km/h (2 Bft) W 270 -4,2 C -8,4 C 10,1 km/h (2 Bft)
_ Min-Zeit 01:35 12:55 15:35 - 00:30 - - 00:30 15:15 05:10
Minimum _ -5,6 C 82 % 1028,6 hPa - 3,9 km/h (1 Bft) - - -7,6 C -15,2 C 2,6 km/h (1 Bft)
_ Max-Zeit 23:55 23:55 06:15 23:55 13:25 - - 23:55 22:18 20:40
Maximum _ -2,9 C 91 % 1030,6 hPa 0,0 l/m 12,1 km/h
W-SW (2 Bft)
- - -4,2 C -6,2 C 24,3 km/h
W (4 Bft)
Durchschnitt _ -4,2 C 88 % 1029,6 hPa #0,0 l/m 7,8 km/h (2 Bft) W-SW - -5,9 C -10,2 C 9,8 km/h (2 Bft)